Location: Gwatt
(46.7204°N, 7.6223°E)
Time: 11:55:01
(UTC+00:00)

Transit 2A - Pass Details

Date: 12 May 2021
Orbit: 601 x 958 km, 66.7° (Epoch: 15 June)

Event Time Altitude Azimuth Distance (km) Brightness Sun altitude
Exits shadow 00:33:15 24° 114° (ESE) 1,284 7.1 -23.4°
Maximum altitude 00:33:20 24° 112° (ESE) 1,283 7.1 -23.4°
Drops below altitude 10° 00:36:52 10° 58° (ENE) 1,962 8.8 -23.2°
Sets 00:39:24 0° 45° (NE) 2,859 10.0 -23.0°
